| time (UTC) | temp F | wind direction | speed MPH | gust MPH | rain 1hr in | rain 24hr in | rain mn in | humidity % | barometer mb |
| 20260903174543 | 83 | 22 | 10.0 | 17.0 | 0.00 | 0.00 | 0.00 | 39 | 1012.1 |
| 20260903174026 | 83 | 13 | 9.0 | 18.0 | 0.00 | 0.00 | 0.00 | 40 | 1012.0 |
| 20260903173527 | 83 | 13 | 10.0 | 18.0 | 0.00 | 0.00 | 0.00 | 40 | 1012.0 |
| 20260903173049 | 83 | 355 | 9.0 | 17.0 | 0.00 | 0.00 | 0.00 | 41 | 1012.0 |
| 20260903172524 | 83 | 19 | 9.0 | 19.0 | 0.00 | 0.00 | 0.00 | 41 | 1012.0 |
| 20260903172027 | 83 | 35 | 9.0 | 19.0 | 0.00 | 0.00 | 0.00 | 41 | 1011.8 |
| 20260903171548 | 83 | 43 | 10.0 | 25.0 | 0.00 | 0.00 | 0.00 | 41 | 1011.8 |
| 20260903171028 | 83 | 338 | 11.0 | 25.0 | 0.00 | 0.00 | 0.00 | 42 | 1011.8 |
| 20260903170527 | 83 | 13 | 7.0 | 19.0 | 0.00 | 0.00 | 0.00 | 42 | 1011.7 |
| 20260903170048 | 83 | 321 | 9.0 | 19.0 | 0.00 | 0.00 | 0.00 | 43 | 1011.6 |
| 20260903165527 | 83 | 32 | 9.0 | 21.0 | 0.00 | 0.00 | 0.00 | 43 | 1011.6 |
| 20260903165027 | 83 | 46 | 9.0 | 21.0 | 0.00 | 0.00 | 0.00 | 43 | 1011.5 |
| 20260903164549 | 83 | 318 | 13.0 | 21.0 | 0.00 | 0.00 | 0.00 | 42 | 1011.5 |
| 20260903164027 | 83 | 24 | 9.0 | 19.0 | 0.00 | 0.00 | 0.00 | 42 | 1011.4 |
| 20260903163527 | 83 | 360 | 7.0 | 19.0 | 0.00 | 0.00 | 0.00 | 42 | 1011.4 |
| 20260903163057 | 83 | 360 | 11.0 | 19.0 | 0.00 | 0.00 | 0.00 | 42 | 1011.5 |
| 20260903162524 | 84 | 360 | 6.0 | 19.0 | 0.00 | 0.00 | 0.00 | 42 | 1011.5 |
| 20260903162031 | 84 | 360 | 6.0 | 15.0 | 0.00 | 0.00 | 0.00 | 41 | 1011.6 |
| 20260903161541 | 84 | 5 | 5.0 | 13.0 | 0.00 | 0.00 | 0.00 | 40 | 1011.4 |
| 20260903161027 | 84 | 42 | 7.0 | 16.0 | 0.00 | 0.00 | 0.00 | 40 | 1011.5 |
| 20260903160528 | 85 | 32 | 9.0 | 16.0 | 0.00 | 0.00 | 0.00 | 40 | 1011.3 |
| 20260903160039 | 85 | 17 | 6.0 | 16.0 | 0.00 | 0.00 | 0.00 | 40 | 1011.3 |
| 20260903155528 | 85 | 5 | 9.0 | 21.0 | 0.00 | 0.00 | 0.00 | 40 | 1011.5 |
| 20260903155027 | 85 | 17 | 4.0 | 21.0 | 0.00 | 0.00 | 0.00 | 40 | 1011.4 |
| 20260903154551 | 85 | 10 | 8.0 | 21.0 | 0.00 | 0.00 | 0.00 | 40 | 1011.4 |
| 20260903154027 | 85 | 360 | 8.0 | 22.0 | 0.00 | 0.00 | 0.00 | 40 | 1011.3 |
| 20260903153531 | 85 | 355 | 8.0 | 22.0 | 0.00 | 0.00 | 0.00 | 40 | 1011.3 |
| 20260903153047 | 85 | 335 | 11.0 | 22.0 | 0.00 | 0.00 | 0.00 | 40 | 1011.2 |
| 20260903152527 | 85 | 38 | 6.0 | 17.0 | 0.00 | 0.00 | 0.00 | 40 | 1011.2 |
| 20260903152027 | 85 | 352 | 7.0 | 17.0 | 0.00 | 0.00 | 0.00 | 41 | 1011.3 |
| 20260903151545 | 85 | 14 | 5.0 | 16.0 | 0.00 | 0.00 | 0.00 | 41 | 1011.3 |
| 20260903151027 | 86 | 90 | 6.0 | 16.0 | 0.00 | 0.00 | 0.00 | 41 | 1011.6 |
| 20260903150530 | 85 | 26 | 7.0 | 20.0 | 0.00 | 0.00 | 0.00 | 42 | 1011.5 |
| 20260903150043 | 85 | 38 | 8.0 | 20.0 | 0.00 | 0.00 | 0.00 | 42 | 1011.5 |
| 20260903145526 | 85 | 51 | 7.0 | 18.0 | 0.00 | 0.00 | 0.00 | 42 | 1011.6 |
| 20260903145031 | 85 | 33 | 7.0 | 20.0 | 0.00 | 0.00 | 0.00 | 42 | 1011.5 |
| 20260903144549 | 86 | 355 | 11.0 | 20.0 | 0.00 | 0.00 | 0.00 | 42 | 1011.5 |
| 20260903144026 | 86 | 320 | 9.0 | 19.0 | 0.00 | 0.00 | 0.00 | 43 | 1011.5 |
| 20260903143527 | 87 | 355 | 5.0 | 18.0 | 0.00 | 0.00 | 0.00 | 43 | 1011.5 |
| 20260903143052 | 87 | 15 | 8.0 | 18.0 | 0.00 | 0.00 | 0.00 | 42 | 1011.5 |
| 20260903142531 | 87 | 42 | 8.0 | 20.0 | 0.00 | 0.00 | 0.00 | 41 | 1011.5 |
| 20260903142026 | 87 | 345 | 11.0 | 23.0 | 0.00 | 0.00 | 0.00 | 41 | 1011.6 |
| 20260903141542 | 87 | 345 | 12.0 | 23.0 | 0.00 | 0.00 | 0.00 | 41 | 1011.6 |
| 20260903141027 | 88 | 22 | 12.0 | 23.0 | 0.00 | 0.00 | 0.00 | 39 | 1011.6 |
| 20260903140527 | 87 | 46 | 13.0 | 21.0 | 0.00 | 0.00 | 0.00 | 39 | 1011.5 |
| 20260903140046 | 88 | 53 | 12.0 | 21.0 | 0.00 | 0.00 | 0.00 | 38 | 1011.4 |
| 20260903135527 | 88 | 28 | 11.0 | 21.0 | 0.00 | 0.00 | 0.00 | 37 | 1011.4 |
| 20260903135027 | 88 | 24 | 11.0 | 21.0 | 0.00 | 0.00 | 0.00 | 37 | 1011.2 |
| 20260903134551 | 88 | 42 | 13.0 | 21.0 | 0.00 | 0.00 | 0.00 | 36 | 1011.3 |
| 20260903134027 | 89 | 49 | 8.0 | 20.0 | 0.00 | 0.00 | 0.00 | 37 | 1011.3 |
| 20260903133526 | 89 | 24 | 11.0 | 20.0 | 0.00 | 0.00 | 0.00 | 38 | 1011.3 |
| 20260903133053 | 89 | 31 | 7.0 | 17.0 | 0.00 | 0.00 | 0.00 | 39 | 1011.3 |
| 20260903132527 | 89 | 42 | 7.0 | 16.0 | 0.00 | 0.00 | 0.00 | 40 | 1011.4 |
| 20260903132027 | 88 | 344 | 8.0 | 16.0 | 0.00 | 0.00 | 0.00 | 40 | 1011.4 |
| 20260903131545 | 88 | 29 | 7.0 | 17.0 | 0.00 | 0.00 | 0.00 | 40 | 1011.4 |
| 20260903131027 | 88 | 37 | 9.0 | 17.0 | 0.00 | 0.00 | 0.00 | 40 | 1011.5 |
| 20260903130528 | 88 | 344 | 10.0 | 17.0 | 0.00 | 0.00 | 0.00 | 40 | 1011.5 |
| 20260903130100 | 89 | 355 | 7.0 | 15.0 | 0.00 | 0.00 | 0.00 | 40 | 1011.7 |
| 20260903125530 | 89 | 68 | 8.0 | 15.0 | 0.00 | 0.00 | 0.00 | 41 | 1011.7 |
| 20260903125027 | 89 | 21 | 8.0 | 15.0 | 0.00 | 0.00 | 0.00 | 40 | 1011.7 |
| 20260903124548 | 89 | 88 | 6.0 | 20.0 | 0.00 | 0.00 | 0.00 | 41 | 1011.7 |
| 20260903124023 | 88 | 350 | 6.0 | 20.0 | 0.00 | 0.00 | 0.00 | 41 | 1011.8 |
| 20260903123534 | 88 | 28 | 10.0 | 20.0 | 0.00 | 0.00 | 0.00 | 41 | 1011.8 |
| 20260903123047 | 89 | 13 | 8.0 | 20.0 | 0.00 | 0.00 | 0.00 | 41 | 1011.8 |
| 20260903122526 | 88 | 360 | 9.0 | 20.0 | 0.00 | 0.00 | 0.00 | 41 | 1011.9 |
| 20260903122026 | 89 | 33 | 6.0 | 19.0 | 0.00 | 0.00 | 0.00 | 41 | 1011.7 |
| 20260903121550 | 89 | 44 | 9.0 | 19.0 | 0.00 | 0.00 | 0.00 | 41 | 1011.9 |
| 20260903121029 | 89 | 9 | 7.0 | 16.0 | 0.00 | 0.00 | 0.00 | 41 | 1011.8 |
| 20260903120527 | 88 | 355 | 9.0 | 16.0 | 0.00 | 0.00 | 0.00 | 41 | 1012.0 |
| 20260903120108 | 89 | 44 | 7.0 | 19.0 | 0.00 | 0.00 | 0.00 | 41 | 1012.0 |
| 20260903115525 | 88 | 23 | 10.0 | 19.0 | 0.00 | 0.00 | 0.00 | 42 | 1012.0 |
| 20260903115030 | 88 | 16 | 10.0 | 17.0 | 0.00 | 0.00 | 0.00 | 42 | 1012.0 |
| 20260903114557 | 88 | 23 | 6.0 | 15.0 | 0.00 | 0.00 | 0.00 | 42 | 1012.0 |
| 20260903114029 | 88 | 25 | 7.0 | 16.0 | 0.00 | 0.00 | 0.00 | 43 | 1012.1 |
| 20260903113526 | 88 | 35 | 9.0 | 20.0 | 0.00 | 0.00 | 0.00 | 42 | 1012.2 |
| 20260903113043 | 88 | 355 | 10.0 | 21.0 | 0.00 | 0.00 | 0.00 | 42 | 1012.1 |
| 20260903112527 | 88 | 5 | 7.0 | 21.0 | 0.00 | 0.00 | 0.00 | 42 | 1012.1 |
| 20260903112027 | 89 | 41 | 10.0 | 21.0 | 0.00 | 0.00 | 0.00 | 41 | 1012.3 |
| 20260903111544 | 89 | 360 | 8.0 | 17.0 | 0.00 | 0.00 | 0.00 | 41 | 1012.1 |
| 20260903111026 | 89 | 360 | 6.0 | 16.0 | 0.00 | 0.00 | 0.00 | 42 | 1012.1 |
| 20260903110524 | 88 | 360 | 11.0 | 19.0 | 0.00 | 0.00 | 0.00 | 43 | 1012.1 |
| 20260903110059 | 88 | 333 | 10.0 | 21.0 | 0.00 | 0.00 | 0.00 | 44 | 1012.2 |
| 20260903105524 | 88 | 26 | 13.0 | 21.0 | 0.00 | 0.00 | 0.00 | 44 | 1012.1 |
| 20260903105026 | 88 | 13 | 11.0 | 20.0 | 0.00 | 0.00 | 0.00 | 43 | 1012.2 |
| 20260903104546 | 88 | 321 | 9.0 | 18.0 | 0.00 | 0.00 | 0.00 | 42 | 1012.1 |
| 20260903104025 | 88 | 48 | 11.0 | 18.0 | 0.00 | 0.00 | 0.00 | 43 | 1012.2 |
| 20260903103527 | 88 | 323 | 8.0 | 18.0 | 0.00 | 0.00 | 0.00 | 42 | 1012.2 |
| 20260903103040 | 87 | 340 | 11.0 | 18.0 | 0.00 | 0.00 | 0.00 | 42 | 1012.3 |
| 20260903102525 | 88 | 334 | 9.0 | 18.0 | 0.00 | 0.00 | 0.00 | 41 | 1012.2 |
| 20260903102025 | 88 | 343 | 11.0 | 18.0 | 0.00 | 0.00 | 0.00 | 42 | 1012.3 |
| 20260903101543 | 88 | 45 | 6.0 | 18.0 | 0.00 | 0.00 | 0.00 | 43 | 1012.3 |
| 20260903101024 | 88 | 41 | 9.0 | 18.0 | 0.00 | 0.00 | 0.00 | 43 | 1012.3 |
| 20260903100527 | 88 | 5 | 12.0 | 18.0 | 0.00 | 0.00 | 0.00 | 43 | 1012.3 |
| 20260903100047 | 87 | 44 | 6.0 | 20.0 | 0.00 | 0.00 | 0.00 | 43 | 1012.2 |
| 20260903095524 | 88 | 24 | 11.0 | 20.0 | 0.00 | 0.00 | 0.00 | 42 | 1012.5 |
| 20260903095026 | 88 | 348 | 11.0 | 26.0 | 0.00 | 0.00 | 0.00 | 40 | 1012.3 |
| 20260903094544 | 88 | 10 | 12.0 | 26.0 | 0.00 | 0.00 | 0.00 | 41 | 1012.4 |
| 20260903094027 | 88 | 350 | 14.0 | 26.0 | 0.00 | 0.00 | 0.00 | 42 | 1012.5 |
| 20260903093527 | 88 | 347 | 11.0 | 23.0 | 0.00 | 0.00 | 0.00 | 40 | 1012.5 |
| 20260903093045 | 88 | 47 | 13.0 | 23.0 | 0.00 | 0.00 | 0.00 | 41 | 1012.6 |
| 20260903092526 | 88 | 339 | 10.0 | 21.0 | 0.00 | 0.00 | 0.00 | 40 | 1012.7 |
| 20260903092026 | 87 | 331 | 11.0 | 21.0 | 0.00 | 0.00 | 0.00 | 41 | 1012.7 |
| 20260903091552 | 87 | 348 | 10.0 | 22.0 | 0.00 | 0.00 | 0.00 | 41 | 1012.7 |
| 20260903091025 | 87 | 19 | 10.0 | 22.0 | 0.00 | 0.00 | 0.00 | 42 | 1012.7 |
| 20260903090525 | 87 | 17 | 11.0 | 22.0 | 0.00 | 0.00 | 0.00 | 42 | 1012.8 |
| 20260903090050 | 87 | 82 | 5.0 | 21.0 | 0.00 | 0.00 | 0.00 | 43 | 1012.8 |
| 20260903085524 | 87 | 5 | 9.0 | 24.0 | 0.00 | 0.00 | 0.00 | 43 | 1012.8 |
| 20260903085024 | 86 | 22 | 14.0 | 24.0 | 0.00 | 0.00 | 0.00 | 43 | 1012.9 |
| 20260903084541 | 87 | 348 | 7.0 | 22.0 | 0.00 | 0.00 | 0.00 | 42 | 1012.9 |
| 20260903084025 | 87 | 30 | 8.0 | 19.0 | 0.00 | 0.00 | 0.00 | 42 | 1013.0 |
| 20260903083527 | 86 | 15 | 10.0 | 19.0 | 0.00 | 0.00 | 0.00 | 42 | 1013.1 |
| 20260903083044 | 86 | 35 | 10.0 | 17.0 | 0.00 | 0.00 | 0.00 | 43 | 1013.1 |
| 20260903082526 | 86 | 44 | 6.0 | 13.0 | 0.00 | 0.00 | 0.00 | 44 | 1013.0 |
| 20260903082027 | 86 | 48 | 8.0 | 13.0 | 0.00 | 0.00 | 0.00 | 44 | 1013.1 |
| 20260903081549 | 86 | 344 | 7.0 | 13.0 | 0.00 | 0.00 | 0.00 | 44 | 1013.0 |
| 20260903081024 | 85 | 17 | 4.0 | 18.0 | 0.00 | 0.00 | 0.00 | 45 | 1013.0 |
| 20260903080528 | 85 | 360 | 7.0 | 18.0 | 0.00 | 0.00 | 0.00 | 44 | 1013.1 |
| 20260903080045 | 85 | 51 | 8.0 | 15.0 | 0.00 | 0.00 | 0.00 | 45 | 1013.0 |
| 20260903075527 | 84 | 38 | 7.0 | 17.0 | 0.00 | 0.00 | 0.00 | 47 | 1013.0 |
| 20260903075026 | 84 | 26 | 9.0 | 18.0 | 0.00 | 0.00 | 0.00 | 46 | 1013.1 |
| 20260903074539 | 84 | 347 | 10.0 | 18.0 | 0.00 | 0.00 | 0.00 | 46 | 1013.1 |
| 20260903074024 | 84 | 55 | 9.0 | 16.0 | 0.00 | 0.00 | 0.00 | 47 | 1013.1 |
| 20260903073523 | 83 | 325 | 7.0 | 16.0 | 0.00 | 0.00 | 0.00 | 48 | 1013.0 |
| 20260903073056 | 83 | 344 | 7.0 | 13.0 | 0.00 | 0.00 | 0.00 | 48 | 1013.0 |
| 20260903072525 | 82 | 43 | 6.0 | 13.0 | 0.00 | 0.00 | 0.00 | 48 | 1013.0 |
| 20260903072024 | 82 | 11 | 4.0 | 13.0 | 0.00 | 0.00 | 0.00 | 49 | 1012.9 |
| 20260903071545 | 82 | 12 | 5.0 | 14.0 | 0.00 | 0.00 | 0.00 | 48 | 1012.9 |
| 20260903071024 | 83 | 13 | 6.0 | 14.0 | 0.00 | 0.00 | 0.00 | 48 | 1013.0 |
| 20260903070524 | 83 | 53 | 8.0 | 14.0 | 0.00 | 0.00 | 0.00 | 48 | 1012.9 |
| 20260903070044 | 83 | 355 | 7.0 | 14.0 | 0.00 | 0.00 | 0.00 | 47 | 1012.8 |
| 20260903065526 | 82 | 51 | 8.0 | 16.0 | 0.00 | 0.00 | 0.00 | 47 | 1012.8 |
| 20260903065030 | 82 | 338 | 9.0 | 16.0 | 0.00 | 0.00 | 0.00 | 48 | 1012.8 |
| 20260903064541 | 83 | 355 | 10.0 | 16.0 | 0.00 | 0.00 | 0.00 | 46 | 1012.7 |
| 20260903064025 | 82 | 360 | 8.0 | 16.0 | 0.00 | 0.00 | 0.00 | 47 | 1012.8 |
| 20260903063525 | 82 | 14 | 10.0 | 21.0 | 0.00 | 0.00 | 0.00 | 47 | 1012.7 |
| 20260903063102 | 82 | 355 | 8.0 | 21.0 | 0.00 | 0.00 | 0.00 | 46 | 1012.7 |
| 20260903062527 | 83 | 360 | 11.0 | 21.0 | 0.00 | 0.00 | 0.00 | 45 | 1012.6 |
| 20260903062026 | 83 | 355 | 7.0 | 15.0 | 0.00 | 0.00 | 0.00 | 44 | 1012.6 |
| 20260903061559 | 83 | 5 | 6.0 | 15.0 | 0.00 | 0.00 | 0.00 | 43 | 1012.4 |
| 20260903061023 | 82 | 344 | 7.0 | 14.0 | 0.00 | 0.00 | 0.00 | 46 | 1012.4 |
| 20260903060524 | 82 | 337 | 7.0 | 14.0 | 0.00 | 0.00 | 0.00 | 45 | 1012.4 |
| 20260903060046 | 81 | 360 | 4.0 | 14.0 | 0.00 | 0.00 | 0.00 | 51 | 1012.5 |
| 20260903055523 | 80 | 360 | 5.0 | 15.0 | 0.00 | 0.00 | 0.00 | 51 | 1012.6 |
| 20260903055026 | 80 | 360 | 7.0 | 17.0 | 0.00 | 0.00 | 0.00 | 52 | 1012.6 |
| 20260903054540 | 80 | 342 | 9.0 | 17.0 | 0.00 | 0.00 | 0.00 | 51 | 1012.7 |
| 20260903054025 | 80 | 360 | 9.0 | 17.0 | 0.00 | 0.00 | 0.00 | 51 | 1012.8 |
| 20260903053524 | 80 | 360 | 8.0 | 26.0 | 0.00 | 0.00 | 0.00 | 52 | 1012.8 |
| 20260903053048 | 80 | 360 | 8.0 | 26.0 | 0.00 | 0.00 | 0.00 | 51 | 1012.9 |
| 20260903052525 | 81 | 360 | 14.0 | 26.0 | 0.00 | 0.00 | 0.00 | 48 | 1013.0 |
| 20260903052029 | 81 | 360 | 15.0 | 26.0 | 0.00 | 0.00 | 0.00 | 47 | 1012.8 |
| 20260903051545 | 81 | 360 | 11.0 | 22.0 | 0.00 | 0.00 | 0.00 | 45 | 1012.6 |
| 20260903051024 | 81 | 360 | 14.0 | 22.0 | 0.00 | 0.00 | 0.00 | 43 | 1012.7 |
| 20260903050526 | 81 | 360 | 6.0 | 24.0 | 0.00 | 0.00 | 0.00 | 47 | 1012.8 |
| 20260903050040 | 80 | 360 | 8.0 | 24.0 | 0.00 | 0.00 | 0.00 | 45 | 1012.7 |
| 20260903045524 | 80 | 360 | 9.0 | 20.0 | 0.00 | 0.00 | 0.00 | 49 | 1012.7 |
| 20260903045024 | 80 | 360 | 9.0 | 20.0 | 0.00 | 0.00 | 0.00 | 47 | 1012.7 |
| 20260903044552 | 80 | 360 | 11.0 | 20.0 | 0.00 | 0.00 | 0.00 | 49 | 1012.7 |
| 20260903044027 | 80 | 360 | 10.0 | 23.0 | 0.00 | 0.00 | 0.00 | 49 | 1012.7 |
| 20260903043525 | 80 | 360 | 10.0 | 23.0 | 0.00 | 0.00 | 0.00 | 49 | 1012.7 |
| 20260903043043 | 80 | 360 | 12.0 | 22.0 | 0.00 | 0.00 | 0.00 | 49 | 1012.7 |
| 20260903042528 | 80 | 360 | 8.0 | 18.0 | 0.00 | 0.00 | 0.00 | 48 | 1012.7 |
| 20260903042024 | 80 | 360 | 8.0 | 18.0 | 0.00 | 0.00 | 0.00 | 47 | 1012.7 |
| 20260903041554 | 81 | 360 | 12.0 | 18.0 | 0.00 | 0.00 | 0.00 | 46 | 1012.6 |
| 20260903041025 | 81 | 360 | 8.0 | 18.0 | 0.00 | 0.00 | 0.00 | 45 | 1012.7 |
| 20260903040524 | 81 | 360 | 10.0 | 18.0 | 0.00 | 0.00 | 0.00 | 45 | 1012.6 |
| 20260903040049 | 81 | 360 | 12.0 | 18.0 | 0.00 | 0.00 | 0.00 | 45 | 1012.4 |
| 20260903035524 | 81 | 360 | 12.0 | 18.0 | 0.00 | 0.00 | 0.00 | 45 | 1012.4 |
| 20260903035025 | 81 | 360 | 9.0 | 15.0 | 0.00 | 0.00 | 0.00 | 45 | 1012.4 |
| 20260903034545 | 81 | 360 | 7.0 | 14.0 | 0.00 | 0.00 | 0.00 | 45 | 1012.4 |
| 20260903034026 | 81 | 360 | 7.0 | 14.0 | 0.00 | 0.00 | 0.00 | 44 | 1012.7 |
| 20260903033525 | 81 | 360 | 5.0 | 11.0 | 0.00 | 0.00 | 0.00 | 44 | 1012.6 |
| 20260903033041 | 81 | 360 | 3.0 | 6.0 | 0.00 | 0.00 | 0.00 | 44 | 1012.7 |
| 20260903032526 | 82 | 360 | 3.0 | 6.0 | 0.00 | 0.00 | 0.00 | 43 | 1012.8 |
| 20260903032026 | 82 | 360 | 2.0 | 9.0 | 0.00 | 0.00 | 0.00 | 43 | 1012.8 |
| 20260903031539 | 82 | 360 | 3.0 | 9.0 | 0.00 | 0.00 | 0.00 | 42 | 1012.7 |
| 20260903031024 | 82 | 360 | 3.0 | 9.0 | 0.00 | 0.00 | 0.00 | 42 | 1012.5 |
| 20260903030525 | 82 | 360 | 2.0 | 8.0 | 0.00 | 0.00 | 0.00 | 42 | 1012.8 |
| 20260903030049 | 82 | 360 | 3.0 | 6.0 | 0.00 | 0.00 | 0.00 | 41 | 1012.6 |
| 20260903025526 | 82 | 0 | 0.0 | 4.0 | 0.00 | 0.00 | 0.00 | 41 | 1012.7 |
| 20260903025023 | 82 | 360 | 0.0 | 13.0 | 0.00 | 0.00 | 0.00 | 40 | 1012.7 |
| 20260903024546 | 82 | 360 | 4.0 | 16.0 | 0.00 | 0.00 | 0.00 | 40 | 1012.6 |
| 20260903024026 | 82 | 360 | 3.0 | 16.0 | 0.00 | 0.00 | 0.00 | 40 | 1012.7 |
| 20260903023527 | 82 | 360 | 8.0 | 16.0 | 0.00 | 0.00 | 0.00 | 41 | 1012.8 |
| 20260903023045 | 82 | 360 | 4.0 | 11.0 | 0.00 | 0.00 | 0.00 | 42 | 1012.5 |
| 20260903022528 | 82 | 360 | 6.0 | 11.0 | 0.00 | 0.00 | 0.00 | 42 | 1012.6 |
| 20260903022027 | 82 | 360 | 5.0 | 9.0 | 0.00 | 0.00 | 0.00 | 42 | 1012.6 |
| 20260903021540 | 81 | 360 | 4.0 | 14.0 | 0.00 | 0.00 | 0.00 | 42 | 1012.5 |
| 20260903021025 | 81 | 360 | 4.0 | 14.0 | 0.00 | 0.00 | 0.00 | 42 | 1012.6 |
| 20260903020529 | 81 | 360 | 7.0 | 14.0 | 0.00 | 0.00 | 0.00 | 42 | 1012.5 |
| 20260903020052 | 81 | 360 | 8.0 | 12.0 | 0.00 | 0.00 | 0.00 | 42 | 1012.5 |
| 20260903015525 | 81 | 360 | 8.0 | 12.0 | 0.00 | 0.00 | 0.00 | 42 | 1012.5 |
| 20260903015025 | 81 | 360 | 5.0 | 9.0 | 0.00 | 0.00 | 0.00 | 42 | 1012.5 |
| 20260903014559 | 81 | 0 | 1.0 | 5.0 | 0.00 | 0.00 | 0.00 | 42 | 1012.6 |
| 20260903014031 | 81 | 360 | 1.0 | 8.0 | 0.00 | 0.00 | 0.00 | 41 | 1012.5 |
| 20260903013527 | 81 | 360 | 2.0 | 8.0 | 0.00 | 0.00 | 0.00 | 41 | 1012.5 |
| 20260903013057 | 81 | 360 | 3.0 | 8.0 | 0.00 | 0.00 | 0.00 | 41 | 1012.6 |
| 20260903012525 | 81 | 360 | 2.0 | 5.0 | 0.00 | 0.00 | 0.00 | 41 | 1012.7 |
| 20260903012027 | 81 | 360 | 2.0 | 5.0 | 0.00 | 0.00 | 0.00 | 41 | 1012.7 |
| 20260903011613 | 81 | 360 | 1.0 | 4.0 | 0.00 | 0.00 | 0.00 | 42 | 1012.6 |
| 20260903011030 | 81 | 360 | 1.0 | 4.0 | 0.00 | 0.00 | 0.00 | 42 | 1012.7 |
| 20260903010527 | 81 | 360 | 1.0 | 3.0 | 0.00 | 0.00 | 0.00 | 42 | 1012.7 |
| 20260903010101 | 81 | 360 | 1.0 | 3.0 | 0.00 | 0.00 | 0.00 | 42 | 1012.6 |
| 20260903005527 | 81 | 0 | 0.0 | 4.0 | 0.00 | 0.00 | 0.00 | 42 | 1012.7 |
| 20260903005028 | 81 | 0 | 0.0 | 4.0 | 0.00 | 0.00 | 0.00 | 41 | 1012.6 |
| 20260903004544 | 82 | 360 | 1.0 | 5.0 | 0.00 | 0.00 | 0.00 | 41 | 1012.6 |
| 20260903004027 | 81 | 360 | 1.0 | 5.0 | 0.00 | 0.00 | 0.00 | 41 | 1012.6 |
| 20260903003527 | 81 | 360 | 0.0 | 5.0 | 0.00 | 0.00 | 0.00 | 41 | 1012.7 |
| 20260903003049 | 81 | 360 | 0.0 | 3.0 | 0.00 | 0.00 | 0.00 | 41 | 1012.6 |
| 20260903002526 | 81 | 360 | 0.0 | 6.0 | 0.00 | 0.00 | 0.00 | 42 | 1012.7 |
| 20260903002030 | 81 | 360 | 2.0 | 8.0 | 0.00 | 0.00 | 0.00 | 41 | 1012.5 |
| 20260903001558 | 81 | 360 | 2.0 | 8.0 | 0.00 | 0.00 | 0.00 | 41 | 1012.5 |
| 20260903001031 | 81 | 360 | 2.0 | 6.0 | 0.00 | 0.00 | 0.00 | 41 | 1012.6 |
| 20260903000533 | 81 | 360 | 3.0 | 6.0 | 0.00 | 0.00 | 0.00 | 41 | 1012.7 |
| 20260903000049 | 82 | 360 | 2.0 | 8.0 | 0.00 | 0.00 | 0.00 | 41 | 1012.7 |
| 20260902235528 | 82 | 360 | 3.0 | 8.0 | 0.00 | 0.00 | 0.00 | 40 | 1012.8 |
| 20260902235027 | 82 | 360 | 4.0 | 8.0 | 0.00 | 0.00 | 0.00 | 40 | 1012.6 |
| 20260902234545 | 82 | 360 | 3.0 | 8.0 | 0.00 | 0.00 | 0.00 | 41 | 1012.6 |
| 20260902234027 | 82 | 360 | 3.0 | 8.0 | 0.00 | 0.00 | 0.00 | 40 | 1012.7 |
| 20260902233528 | 82 | 360 | 4.0 | 6.0 | 0.00 | 0.00 | 0.00 | 40 | 1012.8 |
| 20260902233044 | 82 | 360 | 3.0 | 6.0 | 0.00 | 0.00 | 0.00 | 40 | 1012.8 |
| 20260902232528 | 82 | 360 | 4.0 | 6.0 | 0.00 | 0.00 | 0.00 | 39 | 1012.8 |
| 20260902232025 | 83 | 360 | 1.0 | 6.0 | 0.00 | 0.00 | 0.00 | 39 | 1012.8 |
| 20260902231548 | 83 | 360 | 3.0 | 10.0 | 0.00 | 0.00 | 0.00 | 39 | 1012.8 |
| 20260902231029 | 83 | 360 | 4.0 | 11.0 | 0.00 | 0.00 | 0.00 | 39 | 1012.8 |
| 20260902230528 | 83 | 360 | 3.0 | 12.0 | 0.00 | 0.00 | 0.00 | 39 | 1012.8 |
| 20260902230055 | 83 | 360 | 6.0 | 12.0 | 0.00 | 0.00 | 0.00 | 39 | 1012.9 |
| 20260902225529 | 83 | 360 | 6.0 | 12.0 | 0.00 | 0.00 | 0.00 | 39 | 1012.9 |
| 20260902225027 | 83 | 360 | 3.0 | 9.0 | 0.00 | 0.00 | 0.00 | 39 | 1012.8 |
| 20260902224545 | 83 | 360 | 4.0 | 11.0 | 0.00 | 0.00 | 0.00 | 39 | 1012.9 |
| 20260902224024 | 83 | 360 | 6.0 | 11.0 | 0.00 | 0.00 | 0.00 | 39 | 1012.8 |
| 20260902223525 | 83 | 360 | 5.0 | 10.0 | 0.00 | 0.00 | 0.00 | 39 | 1013.0 |
| 20260902223048 | 83 | 360 | 4.0 | 9.0 | 0.00 | 0.00 | 0.00 | 40 | 1013.0 |
| 20260902222529 | 83 | 360 | 4.0 | 8.0 | 0.00 | 0.00 | 0.00 | 39 | 1013.1 |
| 20260902222028 | 83 | 360 | 4.0 | 8.0 | 0.00 | 0.00 | 0.00 | 39 | 1013.1 |
| 20260902221547 | 83 | 360 | 4.0 | 6.0 | 0.00 | 0.00 | 0.00 | 39 | 1013.2 |
| 20260902221027 | 83 | 0 | 1.0 | 4.0 | 0.00 | 0.00 | 0.00 | 39 | 1013.2 |
| 20260902220523 | 83 | 360 | 1.0 | 4.0 | 0.00 | 0.00 | 0.00 | 39 | 1013.2 |
| 20260902220051 | 83 | 360 | 1.0 | 6.0 | 0.00 | 0.00 | 0.00 | 39 | 1013.2 |
| 20260902215526 | 83 | 360 | 1.0 | 6.0 | 0.00 | 0.00 | 0.00 | 39 | 1013.2 |
| 20260902215025 | 83 | 360 | 2.0 | 6.0 | 0.00 | 0.00 | 0.00 | 39 | 1013.2 |
| 20260902214544 | 84 | 360 | 2.0 | 5.0 | 0.00 | 0.00 | 0.00 | 38 | 1013.3 |
| 20260902214023 | 84 | 360 | 1.0 | 3.0 | 0.00 | 0.00 | 0.00 | 38 | 1013.3 |
| 20260902213523 | 84 | 360 | 1.0 | 3.0 | 0.00 | 0.00 | 0.00 | 38 | 1013.4 |
| 20260902213047 | 84 | 360 | 0.0 | 4.0 | 0.00 | 0.00 | 0.00 | 38 | 1013.3 |
| 20260902212525 | 84 | 360 | 1.0 | 8.0 | 0.00 | 0.00 | 0.00 | 37 | 1013.4 |
| 20260902212026 | 84 | 360 | 2.0 | 8.0 | 0.00 | 0.00 | 0.00 | 37 | 1013.4 |
| 20260902211545 | 85 | 360 | 3.0 | 11.0 | 0.00 | 0.00 | 0.00 | 37 | 1013.3 |
| 20260902211028 | 85 | 360 | 4.0 | 11.0 | 0.00 | 0.00 | 0.00 | 37 | 1013.5 |
| 20260902210527 | 85 | 360 | 5.0 | 11.0 | 0.00 | 0.00 | 0.00 | 37 | 1013.4 |
| 20260902210039 | 85 | 360 | 6.0 | 11.0 | 0.00 | 0.00 | 0.00 | 37 | 1013.4 |
| 20260902205525 | 85 | 360 | 4.0 | 11.0 | 0.00 | 0.00 | 0.00 | 37 | 1013.5 |
| 20260902205025 | 85 | 360 | 4.0 | 11.0 | 0.00 | 0.00 | 0.00 | 37 | 1013.4 |
| 20260902204553 | 85 | 360 | 4.0 | 11.0 | 0.00 | 0.00 | 0.00 | 37 | 1013.4 |
| 20260902204026 | 85 | 360 | 3.0 | 9.0 | 0.00 | 0.00 | 0.00 | 37 | 1013.5 |
| 20260902203525 | 85 | 360 | 1.0 | 5.0 | 0.00 | 0.00 | 0.00 | 36 | 1013.5 |
| 20260902203046 | 85 | 360 | 2.0 | 5.0 | 0.00 | 0.00 | 0.00 | 36 | 1013.5 |
| 20260902202526 | 84 | 360 | 2.0 | 5.0 | 0.00 | 0.00 | 0.00 | 37 | 1013.5 |
| 20260902202025 | 85 | 0 | 0.0 | 0.0 | 0.00 | 0.00 | 0.00 | 37 | 1013.5 |
| 20260902201604 | 84 | 0 | 0.0 | 0.0 | 0.00 | 0.00 | 0.00 | 37 | 1013.5 |
| 20260902201025 | 84 | 0 | 0.0 | 3.0 | 0.00 | 0.00 | 0.00 | 36 | 1013.5 |
| 20260902200527 | 85 | 0 | 0.0 | 3.0 | 0.00 | 0.00 | 0.00 | 36 | 1013.5 |
| 20260902200047 | 85 | 360 | 1.0 | 5.0 | 0.00 | 0.00 | 0.00 | 36 | 1013.6 |
| 20260902195525 | 85 | 360 | 1.0 | 5.0 | 0.00 | 0.00 | 0.00 | 36 | 1013.5 |
| 20260902195027 | 85 | 360 | 2.0 | 5.0 | 0.00 | 0.00 | 0.00 | 36 | 1013.6 |
| 20260902194550 | 85 | 360 | 1.0 | 4.0 | 0.00 | 0.00 | 0.00 | 36 | 1013.5 |
| 20260902194029 | 85 | 360 | 1.0 | 5.0 | 0.00 | 0.00 | 0.00 | 36 | 1013.6 |
| 20260902193525 | 85 | 0 | 1.0 | 5.0 | 0.00 | 0.00 | 0.00 | 36 | 1013.6 |
| 20260902193045 | 85 | 360 | 2.0 | 5.0 | 0.00 | 0.00 | 0.00 | 36 | 1013.6 |
| 20260902192525 | 85 | 360 | 3.0 | 4.0 | 0.00 | 0.00 | 0.00 | 35 | 1013.6 |
| 20260902192026 | 85 | 360 | 1.0 | 4.0 | 0.00 | 0.00 | 0.00 | 36 | 1013.7 |
| 20260902191543 | 85 | 360 | 1.0 | 3.0 | 0.00 | 0.00 | 0.00 | 35 | 1013.7 |
| 20260902191025 | 85 | 0 | 1.0 | 3.0 | 0.00 | 0.00 | 0.00 | 36 | 1013.6 |
| 20260902190525 | 85 | 360 | 1.0 | 3.0 | 0.00 | 0.00 | 0.00 | 36 | 1013.5 |
| 20260902190051 | 85 | 0 | 0.0 | 4.0 | 0.00 | 0.00 | 0.00 | 35 | 1013.6 |
| 20260902185527 | 86 | 360 | 1.0 | 4.0 | 0.00 | 0.00 | 0.00 | 36 | 1013.6 |
| 20260902185026 | 86 | 360 | 1.0 | 8.0 | 0.00 | 0.00 | 0.00 | 35 | 1013.6 |
| 20260902184605 | 86 | 360 | 2.0 | 8.0 | 0.00 | 0.00 | 0.00 | 35 | 1013.6 |
| 20260902184027 | 86 | 360 | 2.0 | 10.0 | 0.00 | 0.00 | 0.00 | 35 | 1013.6 |
| 20260902183524 | 86 | 360 | 2.0 | 14.0 | 0.00 | 0.00 | 0.00 | 35 | 1013.5 |
| 20260902183041 | 86 | 360 | 5.0 | 14.0 | 0.00 | 0.00 | 0.00 | 35 | 1013.5 |
| 20260902182526 | 86 | 360 | 7.0 | 14.0 | 0.00 | 0.00 | 0.00 | 35 | 1013.5 |
| 20260902182028 | 86 | 360 | 5.0 | 11.0 | 0.00 | 0.00 | 0.00 | 35 | 1013.4 |
| 20260902181545 | 86 | 360 | 4.0 | 13.0 | 0.00 | 0.00 | 0.00 | 35 | 1013.4 |
| 20260902181027 | 86 | 360 | 6.0 | 13.0 | 0.00 | 0.00 | 0.00 | 35 | 1013.3 |
| 20260902180527 | 86 | 360 | 3.0 | 12.0 | 0.00 | 0.00 | 0.00 | 35 | 1013.4 |
| 20260902180042 | 86 | 360 | 5.0 | 12.0 | 0.00 | 0.00 | 0.00 | 35 | 1013.4 |
| 20260902175527 | 85 | 360 | 6.0 | 12.0 | 0.00 | 0.00 | 0.00 | 36 | 1013.5 |
| 20260902175027 | 85 | 0 | 1.0 | 5.0 | 0.00 | 0.00 | 0.00 | 36 | 1013.4 |